Weather History for Fargo, ND

Change the Weather History Date:

Wednesday, January 29, 2014

  Actual Average Record
Temperature  
Mean Temperature 10 °F 10 °F  
Max Temperature 26 °F 20 °F 52 °F (1931)
Min Temperature -6 °F 0 °F -36 °F (1951)
Degree Days  
Heating Degree Days 55 55  
Month to date heating degree days 1741 1617  
Since 1 July heating degree days 5464 5157  
Cooling Degree Days 0 0  
Month to date cooling degree days 0 0  
Year to date cooling degree days 0 0  
Moisture  
Dew Point 2 °F    
Average Humidity 71    
Maximum Humidity 80    
Minimum Humidity 62    
Precipitation  
Precipitation 0.00 in 0.02 in 0.32 in (1887)
Month to date precipitation 0.77 0.66  
Year to date precipitation 0.77 0.66  
Snow  
Snow 0.00 in 0.30 in 4.10 in (1916)
Month to date snowfall 9.7 10.6  
Since 1 July snowfall 26.1 30.4  
Snow Depth 12.00 in    
Sea Level Pressure  
Sea Level Pressure 29.72 in    
Wind  
Wind Speed 11 mph (SW)    
Max Wind Speed 18 mph    
Max Gust Speed 24 mph    
Visibility 10 miles    
Events      
T = Trace of Precipitation, MM = Missing Value Source: NWS Daily Summary

Daily Weather History Graph

Daily Weather History Graph

Search for Another Location

Airport:

Trip Planner

Search our weather history database for the weather conditions in past years. The results will help you decide how hot, cold, wet, or windy it might be!

Date:

Astronomy

Jan. 29, 2014 Rise Set
Actual Time 7:55 AM CST 5:25 PM CST
Civil Twilight 7:22 AM CST 5:58 PM CST
Nautical Twilight 6:46 AM CST 6:35 PM CST
Astronomical Twilight 6:10 AM CST 7:11 PM CST
Moon 6:33 AM CST (1/29) 4:27 PM CST (1/29)
Length of Visible Light 10h 35m
Length of Day
9h 30m
Waning Crescent, 2% of the Moon is Illuminated
Jan 29
Waning Crescent
Jan 30
New
Feb 6
First Quarter
Feb 14
Full
Feb 22
Last Quarter

Hourly Weather History & Observations

Time (CST) Temp. Windchill Dew Point Humidity Pressure Visibility Wind Dir Wind Speed Gust Speed Precip Events Conditions
12:53 AM -5.1 °F -22.5 °F -13.0 °F 69% 30.05 in 10.0 mi SSW 10.4 mph - N/A   Clear
1:53 AM -5.1 °F -21.5 °F -13.0 °F 69% 30.02 in 10.0 mi SSW 9.2 mph - N/A   Clear
2:53 AM -4.0 °F -20.2 °F -11.9 °F 69% 29.99 in 10.0 mi South 9.2 mph - N/A   Clear
3:53 AM -4.0 °F -20.2 °F -11.9 °F 69% 29.96 in 10.0 mi South 9.2 mph - N/A   Clear
4:53 AM -2.9 °F -19.8 °F -11.0 °F 68% 29.91 in 10.0 mi South 10.4 mph - N/A   Clear
5:53 AM -2.9 °F -21.6 °F -9.9 °F 72% 29.87 in 10.0 mi South 12.7 mph - N/A   Clear
6:53 AM -2.0 °F -20.5 °F -9.9 °F 69% 29.83 in 10.0 mi South 12.7 mph - N/A   Clear
7:53 AM -0.9 °F -21.2 °F -9.0 °F 69% 29.78 in 10.0 mi SSE 16.1 mph - N/A   Clear
8:53 AM 1.0 °F -17.3 °F -7.1 °F 69% 29.75 in 10.0 mi SSE 13.8 mph - N/A   Clear
9:53 AM 3.9 °F -15.6 °F -5.1 °F 66% 29.70 in 10.0 mi SSE 17.3 mph - N/A   Clear
10:53 AM 9.0 °F -8.5 °F -0.9 °F 64% 29.65 in 10.0 mi South 16.1 mph - N/A   Clear
11:53 AM 14.0 °F -1.4 °F 3.0 °F 62% 29.62 in 10.0 mi South 15.0 mph - N/A   Mostly Cloudy
12:53 PM 18.0 °F 4.8 °F 8.1 °F 65% 29.59 in 10.0 mi SSW 12.7 mph - N/A   Clear
1:53 PM 21.9 °F 9.2 °F 10.9 °F 63% 29.57 in 10.0 mi SW 13.8 mph - N/A   Partly Cloudy
2:53 PM 25.0 °F 14.2 °F 15.1 °F 66% 29.56 in 10.0 mi SW 11.5 mph - N/A   Overcast
3:25 PM 24.8 °F 14.6 °F 15.8 °F 69% 29.51 in 10.0 mi WNW 10.4 mph - N/A   Overcast
3:53 PM 25.0 °F 13.6 °F 16.0 °F 69% 29.58 in 10.0 mi WNW 12.7 mph - N/A   Mostly Cloudy
4:32 PM 21.2 °F 7.3 °F 12.2 °F 68% 29.53 in 10.0 mi NW 16.1 mph - N/A   Scattered Clouds
4:53 PM 21.0 °F 9.3 °F 12.0 °F 68% 29.61 in 10.0 mi NW 11.5 mph - N/A   Partly Cloudy
5:53 PM 18.0 °F 4.8 °F 9.0 °F 68% 29.64 in 10.0 mi NW 12.7 mph - N/A   Clear
6:53 PM 15.1 °F 5.2 °F 8.1 °F 74% 29.64 in 10.0 mi NW 6.9 mph - N/A   Clear
7:53 PM 15.1 °F 6.4 °F 8.1 °F 74% 29.65 in 10.0 mi NW 5.8 mph - N/A   Clear
8:53 PM 14.0 °F 6.5 °F 8.1 °F 77% 29.64 in 10.0 mi NNW 4.6 mph - N/A   Clear
9:53 PM 14.0 °F 5.1 °F 8.1 °F 77% 29.65 in 10.0 mi NNW 5.8 mph - N/A   Mostly Cloudy
10:53 PM 14.0 °F 5.1 °F 8.1 °F 77% 29.65 in 10.0 mi North 5.8 mph - N/A   Overcast
11:53 PM 12.9 °F - 8.1 °F 81% 29.65 in 10.0 mi Calm Calm - N/A   Overcast